Weather History for Knoxville, TN

Change the Weather History Date:

Tuesday, April 8, 2014

  Actual Average Record
Temperature  
Mean Temperature 54 °F 57 °F  
Max Temperature 61 °F 68 °F 84 °F (1929)
Min Temperature 47 °F 45 °F 23 °F (2007)
Degree Days  
Heating Degree Days 11 9  
Month to date heating degree days 47 80  
Since 1 July heating degree days 3627 3437  
Cooling Degree Days 0 1  
Month to date cooling degree days 5 6  
Year to date cooling degree days 5 11  
Growing Degree Days 4 (Base 50)    
Moisture  
Dew Point 39 °F    
Average Humidity 58    
Maximum Humidity 76    
Minimum Humidity 40    
Precipitation  
Precipitation T in 0.14 in 2.32 in (1957)
Month to date precipitation 2.27 1.06  
Year to date precipitation 12.76 13.98  
Snow  
Snow 0.00 in 0.00 in - ()
Month to date snowfall 0.0 0.2  
Since 1 July snowfall 12.4 6.2  
Snow Depth 0.00 in    
Sea Level Pressure  
Sea Level Pressure 29.76 in    
Wind  
Wind Speed 7 mph (WSW)    
Max Wind Speed 20 mph    
Max Gust Speed 26 mph    
Visibility 10 miles    
Events Rain    
T = Trace of Precipitation, MM = Missing Value Source: NWS Daily Summary

Daily Weather History Graph

Daily Weather History Graph

Search for Another Location

Airport:

Trip Planner

Search our weather history database for the weather conditions in past years. The results will help you decide how hot, cold, wet, or windy it might be!

Date:

Astronomy

Apr. 08, 2014 Rise Set
Actual Time 7:12 AM EDT 8:03 PM EDT
Civil Twilight 6:46 AM EDT 8:29 PM EDT
Nautical Twilight 6:15 AM EDT 9:00 PM EDT
Astronomical Twilight 5:44 AM EDT 9:32 PM EDT
Moon 2:07 PM EDT (4/8) 3:13 AM EDT (4/8)
Length of Visible Light 13h 43m
Length of Day
12h 51m
Waxing Gibbous, 62% of the Moon is Illuminated
Apr 8
Waxing Gibbous
Apr 15
Full
Apr 22
Last Quarter
Apr 29
New
May 6
First Quarter

Hourly Weather History & Observations

Time (EDT) Temp. Dew Point Humidity Pressure Visibility Wind Dir Wind Speed Gust Speed Precip Events Conditions
12:02 AM 54.0 °F 45.0 °F 72% 29.74 in 10.0 mi West 18.4 mph 24.2 mph N/A   Overcast
12:32 AM 53.1 °F 44.1 °F 71% 29.75 in 10.0 mi West 13.8 mph - N/A   Overcast
12:53 AM 53.1 °F 43.0 °F 69% 29.75 in 10.0 mi West 15.0 mph 25.3 mph N/A   Overcast
1:14 AM 53.1 °F 43.0 °F 69% 29.76 in 10.0 mi West 12.7 mph - N/A   Overcast
1:53 AM 52.0 °F 42.1 °F 69% 29.75 in 10.0 mi West 15.0 mph - N/A   Overcast
2:06 AM 51.1 °F 42.1 °F 71% 29.76 in 10.0 mi West 17.3 mph 25.3 mph N/A   Overcast
2:53 AM 51.1 °F 41.0 °F 68% 29.75 in 10.0 mi West 15.0 mph - N/A   Overcast
3:53 AM 50.0 °F 41.0 °F 71% 29.75 in 10.0 mi West 12.7 mph - N/A   Overcast
4:53 AM 48.0 °F 39.0 °F 71% 29.75 in 10.0 mi West 15.0 mph - N/A   Overcast
5:53 AM 46.9 °F 37.0 °F 68% 29.76 in 10.0 mi West 11.5 mph - N/A   Overcast
6:53 AM 46.9 °F 39.0 °F 74% 29.77 in 10.0 mi West 9.2 mph - N/A   Overcast
7:53 AM 46.9 °F 39.0 °F 74% 29.78 in 10.0 mi West 4.6 mph - N/A   Mostly Cloudy
8:53 AM 48.0 °F 39.9 °F 74% 29.80 in 10.0 mi Calm Calm - N/A   Mostly Cloudy
9:53 AM 50.0 °F 39.0 °F 66% 29.80 in 10.0 mi Calm Calm - N/A   Scattered Clouds
10:53 AM 52.0 °F 39.0 °F 61% 29.81 in 10.0 mi Variable 5.8 mph - N/A   Mostly Cloudy
11:53 AM 55.0 °F 37.0 °F 51% 29.79 in 10.0 mi NNE 6.9 mph - N/A   Mostly Cloudy
12:53 PM 54.0 °F 37.0 °F 53% 29.78 in 10.0 mi SW 4.6 mph - N/A   Mostly Cloudy
1:53 PM 59.0 °F 37.9 °F 46% 29.75 in 10.0 mi NE 10.4 mph - N/A   Mostly Cloudy
2:53 PM 57.9 °F 34.0 °F 41% 29.73 in 10.0 mi Calm Calm - N/A   Overcast
3:53 PM 59.0 °F 36.0 °F 42% 29.71 in 10.0 mi Calm Calm - N/A   Overcast
4:53 PM 57.9 °F 35.1 °F 42% 29.71 in 10.0 mi ESE 4.6 mph - N/A   Overcast
5:53 PM 57.9 °F 36.0 °F 44% 29.71 in 10.0 mi SE 4.6 mph - N/A   Overcast
6:53 PM 57.9 °F 36.0 °F 44% 29.72 in 10.0 mi SSE 3.5 mph - N/A   Overcast
7:53 PM 55.9 °F 37.0 °F 49% 29.73 in 10.0 mi SE 4.6 mph - N/A   Overcast
8:53 PM 55.9 °F 37.0 °F 49% 29.75 in 10.0 mi WSW 3.5 mph - N/A   Overcast
9:53 PM 55.0 °F 37.9 °F 53% 29.78 in 10.0 mi WSW 3.5 mph - N/A   Overcast
10:53 PM 54.0 °F 41.0 °F 62% 29.80 in 10.0 mi WNW 11.5 mph - N/A   Overcast
11:53 PM 52.0 °F 41.0 °F 66% 29.81 in 10.0 mi WNW 8.1 mph - 0.00 in Rain Light Rain